DW3383 Weather Reports


time (UTC)temp
F
wind
direction
speed
knots
gust
knots
rain 1hr
in
rain 24hr
in
rain mn
in
humidity
%
barometer
mb
20260831050802 45 149 2.6 5.2 0.00 0.86 0.65 92 1009.7
20260831050303 45 267 3.5 4.3 0.00 0.86 0.65 92 1009.8
20260831040802 49 25 2.6 4.3 0.00 0.86 0.65 86 1010.2
20260831030304 50 278 4.3 4.3 0.00 0.86 0.65 75 1010.2
20260831020803 52 33 0.9 1.7 0.00 0.87 0.65 70 1010.5
20260831010303 52 117 0.9 2.6 0.00 0.88 0.65 69 1010.7
20260831000802 52 87 0.9 4.3 0.00 0.88 0.65 76 1011.2
20260830220804 51 281 1.7 4.3 0.00 0.88 0.65 81 1012.1
20260830210804 49 35 2.6 5.2 0.00 0.88 0.65 86 1012.4
20260830210305 49 27 1.7 6.1 0.00 0.88 0.65 84 1012.5
20260830200805 47 355 1.7 2.6 0.00 0.88 0.65 93 1012.6
20260830190304 47 17 1.7 2.6 0.00 0.88 0.65 90 1012.8
20260830180804 46 229 1.7 1.7 0.00 0.88 0.65 92 1012.8
20260830170804 44 274 2.6 2.6 0.00 0.88 0.65 99 1012.9
20260830170304 44 275 2.6 5.2 0.00 0.88 0.65 99 1012.8
20260830160804 43 261 2.6 4.3 0.00 0.88 0.65 99 1012.6
20260830150804 42 139 1.7 4.3 0.00 0.88 0.65 99 1012.1
20260830150305 42 165 2.6 6.1 0.00 0.88 0.65 99 1012.1
20260830140804 43 281 4.3 5.2 0.01 0.88 0.65 98 1011.6
20260830140304 43 242 2.6 5.2 0.01 0.88 0.65 98 1011.5
20260830130804 43 274 4.3 4.3 0.01 0.87 0.64 98 1011.1
20260830130304 43 276 2.6 4.3 0.01 0.87 0.64 98 1011.1
20260830120804 44 271 2.6 2.6 0.02 0.86 0.63 98 1010.5
20260830110805 45 271 1.7 2.6 0.05 0.84 0.61 98 1009.8
20260830110306 46 260 1.7 2.6 0.14 0.84 0.61 98 1009.7
20260830100305 47 244 1.7 4.3 0.08 0.70 0.47 98 1009.0
20260830090805 48 23 1.7 2.6 0.19 0.62 0.39 98 1008.3
20260830090305 48 28 1.7 5.2 0.23 0.62 0.39 98 1008.2
20260830080805 50 282 2.6 2.6 0.19 0.42 0.19 98 1007.4
20260830080305 50 280 2.6 4.3 0.16 0.39 0.16 98 1007.3
20260830070813 50 272 2.6 4.3 0.16 0.23 0.00 98 1006.6
20260830070305 50 272 2.6 4.3 0.17 0.23 0.00 98 1006.6
20260830060805 50 255 1.7 2.6 0.05 0.07 0.07 97 1006.7
20260830060306 51 274 2.6 4.3 0.05 0.07 0.07 97 1006.6